Regional Weather Roundup
Issued by NWS

Home | Current Version | Previous Version | Graphics & Text | Print | Product List | Glossary Off
Versions: 1 2 3 4 5 6 7 8 9 10 11 12 13 14 15 16 17 18 19 20 21 22 23 24 25 26 27 28 29 30 31 32 33 34 35 36 37 38 39 40 41 42 43 44 45 46 47 48 49 50

000
ASUS43 KTOP 260208
RWRKS

WEATHER ROUNDUP FOR KANSAS
NATIONAL WEATHER SERVICE GOODLAND KS
900 PM CDT THU AUG 25 2016

NOTE:  "FAIR" INDICATES FEW OR NO CLOUDS BELOW 12,000 FEET WITH NO
SIGNIFICANT WEATHER AND/OR OBSTRUCTIONS TO VISIBILITY.

KSZ001>006-013>018-027>032-041>047-260300-
NORTHWEST KANSAS

CITY           SKY/WX    TMP DP  RH WIND       PRES   REMARKS
GOODLAND       PTCLDY    63  54  72 SE5       30.19R
HAYS           CLOUDY    66  54  63 NE7       30.13R
HILL CITY      PTCLDY    64  58  80 E5        30.15R
RUSSELL        PTCLDY    67  60  78 NE6       30.12R
$$

KSZ061>065-074>080-084>089-260300-
SOUTHWEST KANSAS

CITY           SKY/WX    TMP DP  RH WIND       PRES   REMARKS
DODGE CITY     CLOUDY    67  63  87 NE5       30.13R
ELKHART          N/A     64  55  72 E6          N/A
GARDEN CITY    CLOUDY    70  59  68 NE5       30.14R
GREAT BEND     MOCLDY    72  57  60 NE7       30.12R
LIBERAL        CLOUDY    66  57  72 N7        30.14R
PRATT          CLOUDY    67  62  83 NE5       30.11R
$$

KSZ066>073-081>083-090>101-260300-
SOUTHEAST KANSAS

CITY           SKY/WX    TMP DP  RH WIND       PRES   REMARKS
CHANUTE        PTCLDY    79  73  82 N5        30.02F
COFFEYVILLE    CLOUDY    74  66  76 S3        30.02F
HUTCHINSON     CLOUDY    72  66  81 NE6       30.08R
MEDICINE LODGE   N/A     72  65  78 NE7       30.06S
NEWTON         MOCLDY    71  67  87 N8        30.08R
PARSONS        CLOUDY    77  68  73 CALM      30.04S
WICHITA INTL   CLOUDY    78  67  68 NE13      30.05S
WICHITA JABRA  CLOUDY    73  69  87 N9        30.05S
WICHITA MCCONL PTCLDY    75  68  78 NE13      30.05S
WINFIELD       CLOUDY    78  71  79 N7        30.03S
$$

KSZ007>012-019>026-033>040-048>060-102>105-260300-
NORTHEAST KANSAS

CITY           SKY/WX    TMP DP  RH WIND       PRES   REMARKS
CONCORDIA      CLOUDY    68  59  73 NE6       30.13R
EMPORIA        CLOUDY    75  68  78 N9        30.06S
LAWRENCE       LGT RAIN  73  70  90 N3        30.07R
MANHATTAN      CLEAR     71  64  78 N6        30.09R
MARYSVILLE     CLEAR     66  61  82 NE5       30.13R
OLATHE IND     PTCLDY    74  70  87 N10       30.07R
OLATHE EXE     MOCLDY    76  70  82 N10       30.07R
SALINA         MOCLDY    74  64  71 NE7       30.10R
TOPEKA BILLARD CLOUDY    73  67  81 N6        30.08R
TOPEKA FORBES  PTCLDY    75  68  78 N7        30.08R
$$




USA.gov is the U.S. government's official web portal to all federal, state and local government web resources and services.